sat.trackr.live / text

‹ back to catalog

STARLINK-33669

NORAD 63283 · 2025-053U

PAYLOAD ACTIVE UNKNOWN

§ Identity

Operator
Country
US
Launch date
2025-03-15
Launch site
AFETR
Launch vehicle
Mass (kg)
RCS (m²)

Purposes: comms

External: N2YO · Heavens-Above · Gunter

§ Orbital elements

Epoch: 2026-09-20T13:51:07.556256Z

Period
94.27 min
Inclination
42.9983°
Eccentricity
0.0004081
Mean motion
15.27586614 rev/d
Perigee alt
480.2 km
Apogee alt
485.8 km
Semi-major
6,861.2 km
B*
2.3029e-4
RAAN
220.7432°
Arg perigee
261.3598°
Mean anomaly
98.6792°
Rev number
8,600

§ Raw data

STARLINK-336691 63283U 25053U   26263.57717079  .00006082  00000+0  23029-3 0  99932 63283  42.9983 220.7432 0004081 261.3598  98.6792 15.27586614 86006

JSON: /api/v1/satellites/63283 · /tle

For live sub-satellite position, see the globe view (requires WebGL).

§ Visibility from observer

Set your observer location to see the next 7 days of passes ≥ 10°. The values pass through the URL so the page stays shareable.

No JS? Fill the form by hand. The geolocation button needs JavaScript.